OpenBCM V1.08-5-g2f4a (Linux)

Packet Radio Mailbox

IZ3LSV

[San Dona' di P. JN]

 Login: GUEST





  
I0OJJ  > KEPS     17.03.25 08:10l 328 Lines 15599 Bytes #123 (0) @ AMSAT
BID : ORB25076.1
Read: GUEST
Subj: 2Line Orbital Elements 25076.AMSAT
Path: IZ3LSV<I0OJJ
Sent: 250317/0610z @:I0OJJ.ITA.EU [Rome] obcm1.08-6-g5b69
From: I0OJJ @ I0OJJ.ITA.EU (Gustavo)
To:   KEPS @ AMSAT
X-Info: This message was generated automatically


QST de W1STR

AMSAT Orbital Elements for Amateur Satellites in TLE Format
From Orbital Analysis Office
New England Sci-Tech STEM Education Center
Natick, MA March 17, 2025
To all radio amateurs


These element sets describe the orbits of various satellites 
in use by the amateur radio community. For details see:
www.amsat.org/keplerian-elements-formats/

A daily update of element sets is available at:
www.amsat.org/tle/daily-bulletin.txt
or without bulletin text:
www.amsat.org/tle/dailytle.txt


AO-07
1 07530U 74089B   25075.90004850 -.00000052  00000-0 -36526-4 0  9993
2 07530 101.9954  79.2577 0011877 284.1508 137.6191 12.53687124303457
UO-11
1 14781U 84021B   25075.87302649  .00004047  00000-0  43663-3 0  9994
2 14781  97.7458  43.9885 0006096 254.0532 106.0013 14.88918031210032
AO-27
1 22825U 93061C   25075.88012789  .00000348  00000-0  15001-3 0  9995
2 22825  98.7473 136.9760 0008413   9.0060 351.1271 14.30749982641875
FO-29
1 24278U 96046B   25075.72596789  .00000047  00000-0  84526-4 0  9990
2 24278  98.5845 340.7559 0349551 202.2532 156.3116 13.53240379411545
NOAA-15
1 25338U 98030A   25075.82664358  .00000441  00000-0  19943-3 0  9990
2 25338  98.5450 102.9630 0009241 244.1115 115.9114 14.26910340396313
GO-32
1 25397U 98043D   25075.90086415  .00000306  00000-0  15278-3 0  9997
2 25397  98.9631  53.2891 0002359  90.5981 269.5467 14.24273039386453
ISS
1 25544U 98067A   25075.85513494  .00023414  00000-0  41535-3 0  9993
2 25544  51.6363  44.3412 0006353  29.6937 330.4411 15.50098504500847
NO-44
1 26931U 01043C   25075.83864139  .00000597  00000-0  25461-3 0  9992
2 26931  67.0529 346.9305 0005660 267.0410  93.0044 14.31656824225132
SO-50
1 27607U 02058C   25075.49668486  .00003504  00000-0  45964-3 0  9990
2 27607  64.5525 103.0946 0046511 354.7869   5.2745 14.81139689196833
CO-55
1 27844U 03031E   25075.51627452  .00000963  00000-0  43944-3 0  9998
2 27844  98.6796  84.8801 0010853  76.5460 283.6927 14.23873632126539
CO-57
1 27848U 03031J   25075.56594042  .00000810  00000-0  37697-3 0  9994
2 27848  98.6822  84.9982 0010782  91.3415 268.8999 14.23226170126274
RS-22
1 27939U 03042A   25075.86277253  .00003449  00000-0  55805-3 0  9994
2 27939  98.3188 243.3199 0010500 278.4782 217.9382 14.71944015148364
NOAA-18
1 28654U 05018A   25075.82560904  .00000441  00000-0  25738-3 0  9999
2 28654  98.8461 156.2472 0014152  14.5428 345.6149 14.13543216 21776
CO-58
1 28895U 05043F   25075.61568115  .00005167  00000-0  86013-3 0  9996
2 28895  98.2350 218.9969 0014516 212.7065 147.3243 14.70426114 34455
CO-65
1 32785U 08021C   25075.43596879  .00010927  00000-0  81724-3 0  9990
2 32785  97.7788  46.0940 0012431 128.9534 231.2801 15.02880206916284
AAUSAT2
1 32788U 08021F   25075.91479126  .00175107  00000-0  24557-2 0  9993
2 32788  97.6067  69.3554 0003910 109.5691 250.5986 15.56137278920181
CO-66
1 32791U 08021J   25075.50135603  .00024096  00000-0  12790-2 0  9997
2 32791  97.7227  53.8587 0007130  97.0458 263.1585 15.15308932917596
RS-30
1 32953U 08025A   25075.81828097  .00000016  00000-0  45303-4 0  9995
2 32953  82.4979 279.9083 0018808 229.2732 130.6715 12.43160121763003
NOAA-19
1 33591U 09005A   25075.88897516  .00000446  00000-0  26188-3 0  9998
2 33591  99.0068 140.0884 0012963 240.3665 119.6216 14.13310583830148
SRMSAT
1 37841U 11058D   25075.75975306  .00000693  00000-0  23297-3 0  9993
2 37841  19.9728 307.8211 0011741 211.6662 212.4077 14.11384954693338
ZACUBE-1
1 39417U 13066B   25075.84778646  .00012543  00000-0  11214-2 0  9995
2 39417  97.7722  33.4291 0044709 337.9860  21.9439 14.95249727612245
Delfi-N3xt
1 39428U 13066N   25075.74187069  .00015915  00000-0  16864-2 0  9991
2 39428  97.8368 354.4430 0085738 280.2032  78.9523 14.86486546606648
GOMX-1
1 39430U 13066Q   25075.86511987  .00004615  00000-0  72430-3 0  9994
2 39430  97.6953 299.6975 0135092 103.3577 258.2730 14.67071814602984
LO-74
1 39440U 13066AA  25075.56091994  .00009358  00000-0  96986-3 0  9994
2 39440  97.8426  20.8153 0065530  99.9882 260.8738 14.88626688608781
AO-73
1 39444U 13066AE  25075.84618160  .00019562  00000-0  15385-2 0  9990
2 39444  97.7607  37.6398 0039979 315.1848  44.6149 15.00248521611469
DTUSAT-2
1 40030U 14033W   25075.85945174  .00017797  00000-0  12138-2 0  9998
2 40030  98.0472  43.7315 0009554   0.0845   0.0381 15.06256467584148
EO-80
1 40032U 14033Y   25075.41904753  .00014219  00000-0  96948-3 0  9998
2 40032  98.0369  43.0443 0006408 297.6477  62.4097 15.06340861583541
LILACSAT-2
1 40908U 15049K   25075.88266690  .00021552  00000-0  61471-3 0  9991
2 40908  97.5140  94.3049 0012036 103.1604 257.0983 15.36004477525211
IO-86
1 40931U 15052B   25038.81889873  .00001817  00000-0  15548-3 0  9993
2 40931   6.0001 108.1159 0012838 187.7041 172.2889 14.78568669506492
Horyu-4
1 41340U 16012D   25075.85990675  .00037643  00000-0  11914-2 0  9991
2 41340  30.9986 339.7086 0008336 270.2257  89.7431 15.31520115499761
Lapan A3
1 41603U 16040E   25075.90664039  .00007243  00000-0  26000-3 0  9998
2 41603  97.1397  83.8748 0010349 201.7481 158.3322 15.28913760484844
CAS-2T
1 41847U 16066G   25075.83075828  .00003291  00000-0  47394-3 0  9998
2 41847  98.4259 151.0235 0348450  74.9180 289.0282 14.43149387438799
CAS-4B
1 42759U 17034B   25075.75924487  .00068554  00000-0  11395-2 0  9996
2 42759  43.0093 103.1108 0016207  55.0176 305.2204 15.51037599429378
CAS-4A
1 42761U 17034D   25075.52105208  .00066067  00000-0  10750-2 0  9997
2 42761  43.0133 102.3212 0017390  59.5070 300.7505 15.51624327429341
TechnoSat
1 42829U 17042E   25075.73403323  .00008323  00000-0  65935-3 0  9990
2 42829  97.3903 248.5207 0012574 205.6570 154.4032 15.00748262417994
AO-91
1 43017U 17073E   25075.69135521  .00015394  00000-0  81037-3 0  9998
2 43017  97.5405 308.6567 0181510  95.3662 266.8300 15.02522085396451
S-Net D
1 43186U 18014G   25075.68162796  .00011593  00000-0  70830-3 0  9990
2 43186  97.5700 339.4955 0010078 147.1919 212.9938 15.10395583389552
S-Net B
1 43187U 18014H   25075.68598889  .00011697  00000-0  71474-3 0  9997
2 43187  97.5700 339.4667 0011004 143.4442 216.7541 15.10379074389552
S-Net A
1 43188U 18014J   25075.61604741  .00011734  00000-0  71665-3 0  9990
2 43188  97.5712 339.5373 0010841 144.4989 215.6963 15.10397889389545
S-Net C
1 43189U 18014K   25075.62195098  .00011130  00000-0  68020-3 0  9993
2 43189  97.5726 339.5429 0012689 138.9662 221.2524 15.10371644388097
Ten-Koh
1 43677U 18084G   25075.42667031  .00006821  00000-0  55563-3 0  9990
2 43677  98.0960 244.2853 0010377 187.9436 172.1624 14.99810280347475
PO-101
1 43678U 18084H   25075.89390510  .00007128  00000-0  61435-3 0  9993
2 43678  98.0975 248.8415 0008085 197.6832 162.4108 14.97622462347703
QO-100
1 43700U 18090A   25075.02757806  .00000144  00000-0  00000-0 0  9995
2 43700   0.0141 134.5582 0001590 255.3614 179.6674  1.00275184 23082
MinXSS-2
1 43758U 18099A   25075.56780745  .00026855  00000-0  11827-2 0  9992
2 43758  97.5119 141.5033 0013939  97.8635 262.4183 15.21718134344023
AO-95
1 43770U 18099N   25075.11943268  .00020252  00000-0  10918-2 0  9993
2 43770  97.5028 134.2308 0012394 145.7645 214.4389 15.14747038343603
RANGE-A
1 43773U 18099R   25075.89768008  .00010195  00000-0  66891-3 0  9995
2 43773  97.4593 126.7665 0012966 120.9540 239.2964 15.07779067343454
MOVE-II
1 43780U 18099Y   25075.13421803  .00113502  00000-0  21852-2 0  9992
2 43780  97.4759 146.2120 0003627 126.5454 233.6130 15.47464934344473
SNUSat 2
1 43782U 18099AA  25075.59938512  .00014411  00000-0  82771-3 0  9991
2 43782  97.4712 132.1236 0014075  90.3366 269.9478 15.12535572343649
SnugLite
1 43784U 18099AC  25075.56358947  .00018948  00000-0  10142-2 0  9999
2 43784  97.4529 131.5002 0005013  97.3856 262.7946 15.15070092343751
ITASat 1
1 43786U 18099AE  25075.65045290  .00013177  00000-0  78600-3 0  9998
2 43786  97.4678 131.9170 0016166 137.1826 223.0666 15.11162962343628
EAGLET 1
1 43790U 18099AJ  25075.11802105  .00009774  00000-0  64034-3 0  9994
2 43790  97.4873 131.6051 0013707 120.9886 239.2691 15.07841230343184
ESEO
1 43792U 18099AL  25075.61759477  .00005035  00000-0  38729-3 0  9992
2 43792  97.4591 126.4489 0012127  91.8355 268.4260 15.02068154343066
CSIM
1 43793U 18099AM  25075.76170014  .00115263  00000-0  21680-2 0  9995
2 43793  97.4943 148.9278 0004809  83.3879 276.7918 15.48127333344415
JO-97
1 43803U 18099AX  25075.63944362  .00021361  00000-0  10561-2 0  9999
2 43803  97.4772 135.5855 0009061  87.4312 272.7959 15.17818797343879
Suomi 100
1 43804U 18099AY  25075.13242043  .00020323  00000-0  10615-2 0  9999
2 43804  97.4838 134.5967 0014289  88.1277 272.1592 15.15844171343748
ISAT
1 43879U 18111D   25075.48443905  .00034097  00000-0  13630-2 0  9997
2 43879  97.6016 348.2518 0011806 126.9866 233.2454 15.24971002340705
UWE-4
1 43880U 18111E   25075.72599060  .00026651  00000-0  11641-2 0  9997
2 43880  97.5954 347.5100 0014481 138.8843 221.3486 15.21994794338705
Sparrow
1 43881U 18111F   25075.72513003  .00035404  00000-0  13744-2 0  9993
2 43881  97.6140 351.0704 0008257 156.5638 203.5977 15.25975066338822
Prox-1
1 44339U 19036A   25075.86779945  .00020826  00000-0  28348-2 0  9991
2 44339  23.9975 257.2688 0006685 181.4886 178.5591 14.77211892305555
SONATE
1 44400U 19038Q   25075.58215069  .00109758  00000-0  11353-2 0  9993
2 44400  97.7062  93.0549 0009067 181.1460 178.9779 15.64329499316176
Taurus 1
1 44530U 19059C   25075.83400996  .00016726  00000-0  32077-2 0  9991
2 44530  98.5952 211.3640 0009441 289.0350  70.9828 14.63783832291537
